Date String (YYYY-MM-DD hh:mm:ss) UTC,Instrument flags,absolute air pressure of the measurement (hPa),sample flow rate (lpm),inlet stack bypass flow (lpm),air temperature of the measurement (°C),ambient temperature measured by the external sensor (°C),aerosol sample conditioner tube jacket temperature (°C),OPC LED temperature (°C),internal box temperature (°C),relative humidity of the measurement (%),span deviation,mass concentration of particles derived from Lorenz-Mie calculation of OPC scattering (μg/m³),mass concentration of particles derived from Lorenz-Mie calculation of OPC scattering (μg/m³),mass concentration of particles derived from Lorenz-Mie calculation of OPC scattering (μg/m³)
DateTimeUTC,F1_M11,P_M11,Q1_M11,Q2_M11,T1_M11,T2_M11,T3_M11,T4_M11,T5_M11,U1_M11,ZSPAN_M11,X2_M11,X0_M11,X1_M11
2023-06-24 05:00:00,SystemResetWarning,0827.4,5.00,000.00,029.7,027.6,000.0,038.2,031.1,8.0,0000.0,0005.03,0013.60,0004.14
2023-06-24 05:01:00,SystemResetWarning,0827.4,5.01,000.00,029.7,027.8,000.0,038.2,031.1,7.9,0000.0,0005.01,0013.20,0004.16
2023-06-24 05:02:00,SystemResetWarning,0827.4,5.00,000.00,029.7,027.9,000.0,038.2,031.2,8.0,0000.0,0005.04,0012.75,0004.17
2023-06-24 05:03:00,SystemResetWarning,0827.5,5.00,000.00,029.7,028.0,000.0,038.2,031.2,7.9,0000.0,0005.07,0012.58,0004.18
2023-06-24 05:04:00,SystemResetWarning,0827.5,5.00,000.00,029.8,028.1,000.0,038.3,031.2,8.5,0000.0,0005.10,0012.30,0004.20
2023-06-24 05:05:00,SystemResetWarning,0827.6,4.99,000.00,029.8,028.2,000.0,038.3,031.3,7.9,0000.7,0005.11,0012.67,0004.19
2023-06-24 05:06:00,SystemResetWarning,0827.7,4.99,000.00,029.8,028.3,000.0,038.3,031.3,8.6,0000.0,0005.06,0012.50,0004.17
2023-06-24 05:07:00,SystemResetWarning,0827.5,4.99,000.00,029.8,028.3,000.0,038.3,031.3,8.0,0002.2,0005.05,0012.94,0004.16
2023-06-24 05:08:00,SystemResetWarning,0827.6,5.00,000.00,029.9,028.4,000.0,038.3,031.4,7.7,0003.9,0005.08,0013.19,0004.18
2023-06-24 05:09:00,SystemResetWarning,0827.6,5.00,000.00,029.9,028.5,000.0,038.3,031.4,8.1,0004.0,0005.12,0013.15,0004.19
2023-06-24 05:10:00,SystemResetWarning,0827.7,5.00,000.00,029.9,028.5,000.0,038.3,031.4,8.3,0004.1,0005.13,0012.99,0004.19
2023-06-24 05:11:00,SystemResetWarning,0827.6,5.00,000.00,029.9,028.5,000.0,038.4,031.4,8.3,0003.9,0005.10,0012.22,0004.20
2023-06-24 05:12:00,SystemResetWarning,0827.6,4.99,000.00,030.0,027.3,000.0,038.3,031.4,8.0,0004.1,0005.10,0012.23,0004.20
2023-06-24 05:13:00,SystemResetWarning,0827.5,5.00,000.00,029.9,025.2,000.0,038.3,031.2,7.4,0004.0,0005.11,0012.25,0004.21
2023-06-24 05:14:00,SystemResetWarning,0827.6,5.00,000.00,029.8,024.8,000.0,038.2,031.1,7.4,0004.0,0005.09,0011.48,0004.19
2023-06-24 05:15:00,SystemResetWarning,0827.5,5.01,000.00,029.7,025.0,000.0,038.2,030.8,7.5,0004.0,0005.08,0011.67,0004.19
2023-06-24 05:16:00,SystemResetWarning,0827.5,5.02,000.00,029.6,025.5,000.0,038.2,030.8,7.2,0003.5,0005.08,0011.85,0004.22
2023-06-24 05:17:00,SystemResetWarning,0827.6,5.00,000.00,029.6,025.9,000.0,038.2,030.8,7.3,0003.3,0005.07,0011.86,0004.24
2023-06-24 05:18:00,SystemResetWarning,0827.7,5.00,000.00,029.6,026.4,000.0,038.2,030.9,7.8,0002.8,0005.03,0011.75,0004.24
2023-06-24 05:19:00,SystemResetWarning,0827.6,5.00,000.00,029.6,026.7,000.0,038.2,030.9,8.1,0002.3,0005.02,0011.38,0004.24
2023-06-24 05:20:00,SystemResetWarning,0827.6,5.01,000.00,029.6,027.0,000.0,038.2,030.9,8.0,0001.8,0005.04,0012.28,0004.25
2023-06-24 05:21:00,SystemResetWarning,0827.7,5.00,000.00,029.6,027.3,000.0,038.2,031.0,8.1,0002.3,0005.02,0012.64,0004.26
2023-06-24 05:22:00,SystemResetWarning,0827.7,5.00,000.00,029.6,027.5,000.0,038.2,031.0,8.0,0002.5,0005.05,0012.79,0004.27
2023-06-24 05:23:00,SystemResetWarning,0827.6,5.00,000.00,029.6,027.6,000.0,038.2,031.0,7.8,0002.5,0005.08,0012.98,0004.27
2023-06-24 05:24:00,SystemResetWarning,0827.7,4.99,000.00,029.6,027.8,000.0,038.2,031.1,8.0,0002.5,0005.13,0013.10,0004.27
2023-06-24 05:25:00,SystemResetWarning,0827.7,5.00,000.00,029.7,027.9,000.0,038.2,031.1,7.6,0002.4,0005.19,0013.04,0004.29
2023-06-24 05:26:00,SystemResetWarning,0827.6,5.00,000.00,029.7,028.0,000.0,038.2,031.2,7.3,0002.7,0005.26,0013.06,0004.31
2023-06-24 05:27:00,SystemResetWarning,0827.7,5.00,000.00,029.7,028.1,000.0,038.2,031.2,7.2,0003.4,0005.25,0012.44,0004.30
2023-06-24 05:28:00,SystemResetWarning,0827.7,5.00,000.00,029.7,028.2,000.0,038.2,031.2,7.3,0003.3,0005.24,0012.42,0004.30
2023-06-24 05:29:00,SystemResetWarning,0827.8,5.00,000.00,029.8,028.2,000.0,038.2,031.3,7.5,0003.6,0005.27,0012.13,0004.32
2023-06-24 05:30:00,SystemResetWarning,0827.7,5.00,000.00,029.8,028.3,000.0,038.2,031.3,7.4,0003.8,0005.25,0011.67,0004.31
2023-06-24 05:31:00,SystemResetWarning,0827.8,5.00,000.00,029.8,028.4,000.0,038.3,031.3,7.2,0003.7,0005.24,0010.57,0004.31
2023-06-24 05:32:00,SystemResetWarning,0827.8,5.00,000.00,029.8,028.4,000.0,038.3,031.3,7.4,0003.8,0005.26,0010.44,0004.31
2023-06-24 05:33:00,SystemResetWarning,0827.8,5.00,000.00,029.9,028.5,000.0,038.3,031.4,7.2,0003.9,0005.27,0011.66,0004.30
2023-06-24 05:34:00,SystemResetWarning,0827.8,4.99,000.00,029.9,028.5,000.0,038.3,031.4,7.6,0004.1,0005.27,0011.55,0004.31
2023-06-24 05:35:00,SystemResetWarning,0827.8,5.00,000.00,029.9,028.5,000.0,038.4,031.4,7.2,0004.4,0005.24,0011.36,0004.33
2023-06-24 05:36:00,SystemResetWarning,0827.9,5.00,000.00,030.0,028.6,000.0,038.4,031.4,7.3,0004.4,0005.20,0012.09,0004.32
2023-06-24 05:37:00,SystemResetWarning,0827.8,5.00,000.00,030.0,028.6,000.0,038.4,031.5,7.0,0004.6,0005.11,0012.24,0004.31
2023-06-24 05:38:00,SystemResetWarning,0827.9,4.99,000.00,030.0,027.6,000.0,038.4,031.5,6.9,0004.4,0005.09,0012.49,0004.32
2023-06-24 05:39:00,SystemResetWarning,0827.9,5.00,000.00,030.0,025.3,000.0,038.3,031.4,7.2,0004.2,0005.10,0012.61,0004.31
2023-06-24 05:40:00,SystemResetWarning,0827.8,5.00,000.00,029.9,024.8,000.0,038.3,031.3,7.2,0004.3,0005.13,0012.66,0004.31
2023-06-24 05:41:00,SystemResetWarning,0827.8,5.01,000.00,029.8,025.0,000.0,038.2,030.9,7.4,0004.4,0005.14,0012.65,0004.31
2023-06-24 05:42:00,SystemResetWarning,0827.8,5.01,000.00,029.7,025.4,000.0,038.2,030.9,7.2,0004.3,0005.10,0012.71,0004.31
2023-06-24 05:43:00,SystemResetWarning,0827.8,4.99,000.00,029.7,025.9,000.0,038.2,030.9,7.4,0003.8,0005.09,0012.72,0004.31
2023-06-24 05:44:00,SystemResetWarning,0827.8,5.00,000.00,029.6,026.3,000.0,038.2,030.9,7.1,0003.7,0005.10,0012.18,0004.32
2023-06-24 05:45:00,SystemResetWarning,0827.8,5.00,000.00,029.6,026.7,000.0,038.2,030.9,7.2,0003.6,0005.10,0012.60,0004.32
2023-06-24 05:46:00,SystemResetWarning,0827.8,5.01,000.00,029.6,027.0,000.0,038.2,031.0,7.0,0003.6,0005.10,0013.09,0004.32
2023-06-24 05:47:00,SystemResetWarning,0828.0,4.99,000.00,029.6,027.3,000.0,038.2,031.0,6.9,0004.0,0005.09,0012.84,0004.32
2023-06-24 05:48:00,SystemResetWarning,0827.8,4.99,000.00,029.6,027.5,000.0,038.2,031.1,6.8,0003.8,0005.14,0013.51,0004.32
2023-06-24 05:49:00,SystemResetWarning,0827.9,5.00,000.00,029.7,027.7,000.0,038.2,031.1,6.6,0003.5,0005.16,0013.23,0004.32
2023-06-24 05:50:00,SystemResetWarning,0828.0,5.00,000.00,029.7,027.8,000.0,038.2,031.2,6.7,0003.4,0005.17,0013.18,0004.34
2023-06-24 05:51:00,SystemResetWarning,0828.1,5.00,000.00,029.7,027.9,000.0,038.2,031.2,6.8,0003.9,0005.16,0013.64,0004.34
2023-06-24 05:52:00,SystemResetWarning,0828.1,5.01,000.00,029.7,028.0,000.0,038.2,031.2,7.0,0003.8,0005.13,0013.61,0004.34
2023-06-24 05:53:00,SystemResetWarning,0828.1,5.01,000.00,029.7,028.1,000.0,038.2,031.2,7.0,0004.2,0005.11,0013.33,0004.35
2023-06-24 05:54:00,SystemResetWarning,0828.1,5.00,000.00,029.8,028.2,000.0,038.3,031.2,6.6,0004.6,0005.10,0013.18,0004.35
2023-06-24 05:55:00,SystemResetWarning,0828.0,4.99,000.00,029.8,028.2,000.0,038.3,031.3,6.1,0001.6,0005.09,0012.62,0004.35
2023-06-24 05:56:00,SystemResetWarning,0828.1,4.99,000.00,029.8,028.3,000.0,038.3,031.3,5.8,0002.9,0005.10,0012.39,0004.34
2023-06-24 05:57:00,SystemResetWarning,0828.1,5.00,000.00,029.8,028.3,000.0,038.3,031.3,6.2,0005.1,0005.12,0011.90,0004.34
2023-06-24 05:58:00,SystemResetWarning,0828.1,5.01,000.00,029.9,028.4,000.0,038.3,031.3,6.3,0004.1,0005.09,0011.82,0004.34
2023-06-24 05:59:00,SystemResetWarning,0828.1,5.00,000.00,029.9,028.4,000.0,038.3,031.4,6.6,0005.4,0005.07,0011.33,0004.34
